Time,TemperatureF,DewpointF,PressureIn,WindDirection,WindDirectionDegrees,WindSpeedMPH,WindSpeedGustMPH,Humidity,HourlyPrecipIn,Conditions,Clouds,dailyrainin,SoftwareType,DateUTC
2013-01-03 00:02:00,36.0,3.0,-100.00,NNE,33,3.0,7.0,24,-99.99,,,-99.99,,2013-01-03 08:02:00,
2013-01-03 00:11:00,36.0,2.0,-100.00,NE,43,4.0,10.0,23,-99.99,,,-99.99,,2013-01-03 08:11:00,
2013-01-03 00:22:00,36.0,2.0,-100.00,NE,39,4.0,10.0,23,-99.99,,,-99.99,,2013-01-03 08:22:00,
2013-01-03 00:32:00,36.0,2.0,-100.00,NE,46,4.0,9.0,23,-99.99,,,-99.99,,2013-01-03 08:32:00,
2013-01-03 00:42:00,36.0,2.0,-100.00,NE,47,5.0,9.0,23,-99.99,,,-99.99,,2013-01-03 08:42:00,
2013-01-03 00:52:00,36.0,2.0,-100.00,NE,43,5.0,10.0,23,-99.99,,,-99.99,,2013-01-03 08:52:00,
2013-01-03 01:02:00,36.0,3.0,-100.00,NE,42,5.0,10.0,24,-99.99,,,-99.99,,2013-01-03 09:02:00,
2013-01-03 01:11:00,36.0,3.0,-100.00,NE,39,5.0,9.0,24,-99.99,,,-99.99,,2013-01-03 09:11:00,
2013-01-03 01:22:00,36.0,3.0,-100.00,NE,40,4.0,8.0,24,-99.99,,,-99.99,,2013-01-03 09:22:00,
2013-01-03 01:33:00,36.0,3.0,-100.00,ENE,63,3.0,7.0,24,-99.99,,,-99.99,,2013-01-03 09:33:00,
2013-01-03 01:42:00,36.0,3.0,-100.00,ENE,63,3.0,7.0,24,-99.99,,,-99.99,,2013-01-03 09:42:00,
2013-01-03 01:52:00,36.0,1.0,-100.00,NE,43,3.0,7.0,22,-99.99,,,-99.99,,2013-01-03 09:52:00,
2013-01-03 02:02:00,37.0,1.0,-100.00,NE,37,4.0,9.0,21,-99.99,,,-99.99,,2013-01-03 10:02:00,
2013-01-03 02:12:00,36.0,1.0,-100.00,NNE,21,2.0,6.0,22,-99.99,,,-99.99,,2013-01-03 10:12:00,
2013-01-03 02:22:00,36.0,1.0,-100.00,ENE,73,2.0,8.0,22,-99.99,,,-99.99,,2013-01-03 10:22:00,
2013-01-03 02:32:00,36.0,1.0,-100.00,NE,44,4.0,10.0,22,-99.99,,,-99.99,,2013-01-03 10:32:00,
2013-01-03 02:42:00,36.0,1.0,-100.00,NE,54,4.0,9.0,22,-99.99,,,-99.99,,2013-01-03 10:42:00,
2013-01-03 02:52:00,36.0,0.0,-100.00,NE,40,3.0,10.0,21,-99.99,,,-99.99,,2013-01-03 10:52:00,
2013-01-03 03:02:00,37.0,-1.0,-100.00,NE,37,3.0,9.0,19,-99.99,,,-99.99,,2013-01-03 11:02:00,
2013-01-03 03:11:00,38.0,-1.0,-100.00,NNE,27,5.0,8.0,19,-99.99,,,-99.99,,2013-01-03 11:11:00,
2013-01-03 03:22:00,37.0,0.0,-100.00,NE,40,5.0,9.0,20,-99.99,,,-99.99,,2013-01-03 11:22:00,
2013-01-03 03:32:00,37.0,0.0,-100.00,NNE,32,5.0,8.0,20,-99.99,,,-99.99,,2013-01-03 11:32:00,
2013-01-03 03:42:00,37.0,0.0,-100.00,NE,36,5.0,8.0,20,-99.99,,,-99.99,,2013-01-03 11:42:00,
2013-01-03 03:52:00,36.0,1.0,-100.00,NNE,27,5.0,8.0,22,-99.99,,,-99.99,,2013-01-03 11:52:00,
2013-01-03 04:02:00,36.0,1.0,-100.00,NNE,27,5.0,8.0,22,-99.99,,,-99.99,,2013-01-03 12:02:00,
2013-01-03 04:12:00,36.0,1.0,-100.00,NE,41,4.0,9.0,22,-99.99,,,-99.99,,2013-01-03 12:12:00,
2013-01-03 04:22:00,37.0,2.0,-100.00,NE,46,4.0,8.0,22,-99.99,,,-99.99,,2013-01-03 12:22:00,
2013-01-03 04:32:00,37.0,1.0,-100.00,NE,46,4.0,11.0,21,-99.99,,,-99.99,,2013-01-03 12:32:00,
2013-01-03 04:42:00,36.0,0.0,-100.00,NE,40,5.0,9.0,21,-99.99,,,-99.99,,2013-01-03 12:42:00,
2013-01-03 04:52:00,37.0,1.0,-100.00,NE,47,4.0,7.0,21,-99.99,,,-99.99,,2013-01-03 12:52:00,
2013-01-03 05:02:00,37.0,1.0,-100.00,ENE,64,3.0,9.0,21,-99.99,,,-99.99,,2013-01-03 13:02:00,
2013-01-03 05:12:00,36.0,1.0,-100.00,NE,35,4.0,8.0,22,-99.99,,,-99.99,,2013-01-03 13:12:00,
2013-01-03 05:22:00,37.0,1.0,-100.00,NE,37,5.0,10.0,21,-99.99,,,-99.99,,2013-01-03 13:22:00,
2013-01-03 05:32:00,36.0,1.0,-100.00,NE,50,4.0,7.0,22,-99.99,,,-99.99,,2013-01-03 13:32:00,
2013-01-03 05:42:00,36.0,2.0,-100.00,NE,34,4.0,9.0,23,-99.99,,,-99.99,,2013-01-03 13:42:00,
2013-01-03 05:52:00,35.0,2.0,-100.00,ENE,66,3.0,11.0,24,-99.99,,,-99.99,,2013-01-03 13:52:00,
2013-01-03 06:02:00,35.0,3.0,-100.00,East,90,3.0,9.0,25,-99.99,,,-99.99,,2013-01-03 14:02:00,
2013-01-03 06:12:00,34.0,3.0,-100.00,ENE,70,3.0,8.0,26,-99.99,,,-99.99,,2013-01-03 14:12:00,
2013-01-03 06:22:00,34.0,3.0,-100.00,NE,55,5.0,11.0,26,-99.99,,,-99.99,,2013-01-03 14:22:00,
2013-01-03 06:32:00,34.0,4.0,-100.00,East,84,4.0,8.0,27,-99.99,,,-99.99,,2013-01-03 14:32:00,
2013-01-03 06:42:00,34.0,4.0,-100.00,East,84,4.0,8.0,27,-99.99,,,-99.99,,2013-01-03 14:42:00,
2013-01-03 06:53:00,34.0,4.0,-100.00,ENE,58,4.0,11.0,28,-99.99,,,-99.99,,2013-01-03 14:53:00,
2013-01-03 07:02:00,34.0,4.0,-100.00,NE,47,3.0,7.0,28,-99.99,,,-99.99,,2013-01-03 15:02:00,
2013-01-03 07:12:00,34.0,4.0,-100.00,NE,54,4.0,11.0,27,-99.99,,,-99.99,,2013-01-03 15:12:00,
2013-01-03 07:22:00,34.0,4.0,-100.00,ENE,61,4.0,7.0,28,-99.99,,,-99.99,,2013-01-03 15:22:00,
2013-01-03 07:33:00,34.0,4.0,-100.00,NE,39,4.0,8.0,27,-99.99,,,-99.99,,2013-01-03 15:33:00,
2013-01-03 07:42:00,34.0,4.0,-100.00,NE,39,4.0,8.0,27,-99.99,,,-99.99,,2013-01-03 15:42:00,
2013-01-03 07:53:00,34.0,3.0,-100.00,NE,47,4.0,7.0,26,-99.99,,,-99.99,,2013-01-03 15:53:00,
2013-01-03 08:02:00,35.0,4.0,-100.00,NE,55,4.0,10.0,26,-99.99,,,-99.99,,2013-01-03 16:02:00,
2013-01-03 08:12:00,34.0,4.0,-100.00,NE,54,3.0,6.0,27,-99.99,,,-99.99,,2013-01-03 16:12:00,
2013-01-03 08:22:00,35.0,5.0,-100.00,ENE,61,3.0,7.0,28,-99.99,,,-99.99,,2013-01-03 16:22:00,
2013-01-03 08:33:00,36.0,4.0,-100.00,NE,48,4.0,7.0,26,-99.99,,,-99.99,,2013-01-03 16:33:00,
2013-01-03 08:42:00,36.0,4.0,-100.00,NE,48,4.0,7.0,26,-99.99,,,-99.99,,2013-01-03 16:42:00,
2013-01-03 08:52:00,36.0,4.0,-100.00,NE,48,3.0,8.0,26,-99.99,,,-99.99,,2013-01-03 16:52:00,
2013-01-03 09:02:00,36.0,4.0,-100.00,NE,40,5.0,11.0,26,-99.99,,,-99.99,,2013-01-03 17:02:00,
2013-01-03 09:12:00,36.0,4.0,-100.00,NE,53,5.0,9.0,26,-99.99,,,-99.99,,2013-01-03 17:12:00,
2013-01-03 09:22:00,37.0,4.0,-100.00,NE,50,4.0,12.0,25,-99.99,,,-99.99,,2013-01-03 17:22:00,
2013-01-03 09:32:00,38.0,5.0,-100.00,ENE,57,4.0,8.0,25,-99.99,,,-99.99,,2013-01-03 17:32:00,
2013-01-03 09:42:00,38.0,5.0,-100.00,NE,56,3.0,8.0,25,-99.99,,,-99.99,,2013-01-03 17:42:00,
2013-01-03 09:52:00,38.0,4.0,-100.00,NE,41,3.0,7.0,24,-99.99,,,-99.99,,2013-01-03 17:52:00,
2013-01-03 10:02:00,38.0,4.0,-100.00,ENE,71,3.0,10.0,24,-99.99,,,-99.99,,2013-01-03 18:02:00,
2013-01-03 10:12:00,38.0,4.0,-100.00,NE,48,3.0,8.0,24,-99.99,,,-99.99,,2013-01-03 18:12:00,
2013-01-03 10:22:00,38.0,4.0,-100.00,ENE,65,3.0,6.0,24,-99.99,,,-99.99,,2013-01-03 18:22:00,
2013-01-03 10:33:00,38.0,4.0,-100.00,NE,52,3.0,7.0,24,-99.99,,,-99.99,,2013-01-03 18:33:00,
2013-01-03 10:42:00,39.0,5.0,-100.00,NE,51,3.0,7.0,24,-99.99,,,-99.99,,2013-01-03 18:42:00,
2013-01-03 10:53:00,39.0,5.0,-100.00,NE,37,4.0,9.0,24,-99.99,,,-99.99,,2013-01-03 18:53:00,
2013-01-03 11:02:00,38.0,5.0,-100.00,NE,44,4.0,10.0,25,-99.99,,,-99.99,,2013-01-03 19:02:00,
2013-01-03 11:12:00,38.0,5.0,-100.00,NE,55,4.0,8.0,25,-99.99,,,-99.99,,2013-01-03 19:12:00,
2013-01-03 11:55:00,39.0,6.0,-100.00,NE,56,3.0,10.0,25,-99.99,,,-99.99,,2013-01-03 19:55:00,
2013-01-03 12:02:00,39.0,6.0,-100.00,NE,50,3.0,6.0,25,-99.99,,,-99.99,,2013-01-03 20:02:00,
2013-01-03 12:12:00,39.0,6.0,-100.00,NE,50,3.0,6.0,25,-99.99,,,-99.99,,2013-01-03 20:12:00,
2013-01-03 12:22:00,39.0,6.0,-100.00,ENE,57,3.0,6.0,25,-99.99,,,-99.99,,2013-01-03 20:22:00,
2013-01-03 12:33:00,38.0,6.0,-100.00,NE,46,4.0,8.0,26,-99.99,,,-99.99,,2013-01-03 20:33:00,
2013-01-03 12:42:00,39.0,7.0,-100.00,NE,55,3.0,6.0,26,-99.99,,,-99.99,,2013-01-03 20:42:00,
2013-01-03 12:53:00,39.0,6.0,-100.00,NE,52,3.0,7.0,25,-99.99,,,-99.99,,2013-01-03 20:53:00,
2013-01-03 13:02:00,39.0,6.0,-100.00,NE,53,3.0,7.0,25,-99.99,,,-99.99,,2013-01-03 21:02:00,
2013-01-03 13:12:00,38.0,6.0,-100.00,ENE,61,3.0,7.0,26,-99.99,,,-99.99,,2013-01-03 21:12:00,
2013-01-03 13:22:00,39.0,8.0,-100.00,NE,43,2.0,5.0,27,-99.99,,,-99.99,,2013-01-03 21:22:00,
2013-01-03 13:34:00,39.0,7.0,-100.00,NE,42,4.0,7.0,26,-99.99,,,-99.99,,2013-01-03 21:34:00,
2013-01-03 13:46:00,38.0,6.0,-100.00,NE,55,4.0,8.0,26,-99.99,,,-99.99,,2013-01-03 21:46:00,
2013-01-03 13:52:00,38.0,4.0,-100.00,NE,52,4.0,9.0,24,-99.99,,,-99.99,,2013-01-03 21:52:00,
2013-01-03 14:02:00,38.0,6.0,-100.00,NE,42,4.0,12.0,26,-99.99,,,-99.99,,2013-01-03 22:02:00,
2013-01-03 14:12:00,38.0,7.0,-100.00,NNE,30,4.0,7.0,27,-99.99,,,-99.99,,2013-01-03 22:12:00,
2013-01-03 14:22:00,38.0,7.0,-100.00,NE,39,4.0,7.0,27,-99.99,,,-99.99,,2013-01-03 22:22:00,
2013-01-03 14:32:00,37.0,6.0,-100.00,NE,45,4.0,8.0,27,-99.99,,,-99.99,,2013-01-03 22:32:00,
2013-01-03 14:42:00,37.0,6.0,-100.00,NE,53,3.0,7.0,27,-99.99,,,-99.99,,2013-01-03 22:42:00,
2013-01-03 14:52:00,37.0,6.0,-100.00,NE,51,3.0,8.0,27,-99.99,,,-99.99,,2013-01-03 22:52:00,
2013-01-03 15:02:00,37.0,6.0,-100.00,NE,54,4.0,8.0,27,-99.99,,,-99.99,,2013-01-03 23:02:00,
2013-01-03 15:12:00,37.0,6.0,-100.00,NE,41,3.0,6.0,27,-99.99,,,-99.99,,2013-01-03 23:12:00,
2013-01-03 15:22:00,37.0,7.0,-100.00,NNE,21,3.0,6.0,28,-99.99,,,-99.99,,2013-01-03 23:22:00,
2013-01-03 15:32:00,37.0,8.0,-100.00,NNE,16,3.0,6.0,29,-99.99,,,-99.99,,2013-01-03 23:32:00,
2013-01-03 15:42:00,37.0,8.0,-100.00,NE,47,3.0,7.0,29,-99.99,,,-99.99,,2013-01-03 23:42:00,
2013-01-03 15:52:00,37.0,4.0,-100.00,NE,35,4.0,8.0,25,-99.99,,,-99.99,,2013-01-03 23:52:00,
2013-01-03 16:02:00,39.0,2.0,-100.00,NE,35,6.0,11.0,21,-99.99,,,-99.99,,2013-01-04 00:02:00,
2013-01-03 16:12:00,39.0,2.0,-100.00,NE,42,5.0,11.0,21,-99.99,,,-99.99,,2013-01-04 00:12:00,
2013-01-03 16:22:00,39.0,0.0,-100.00,NE,37,6.0,13.0,19,-99.99,,,-99.99,,2013-01-04 00:22:00,
2013-01-03 16:32:00,38.0,2.0,-100.00,NNE,21,4.0,7.0,21,-99.99,,,-99.99,,2013-01-04 00:32:00,
2013-01-03 16:42:00,36.0,6.0,-100.00,NE,45,3.0,6.0,28,-99.99,,,-99.99,,2013-01-04 00:42:00,
2013-01-03 16:52:00,35.0,8.0,-100.00,NE,44,3.0,6.0,32,-99.99,,,-99.99,,2013-01-04 00:52:00,
2013-01-03 17:02:00,34.0,9.0,-100.00,NE,53,2.0,4.0,34,-99.99,,,-99.99,,2013-01-04 01:02:00,
2013-01-03 17:12:00,33.0,8.0,-100.00,NE,52,3.0,5.0,35,-99.99,,,-99.99,,2013-01-04 01:12:00,
2013-01-03 17:22:00,33.0,8.0,-100.00,ENE,62,3.0,6.0,35,-99.99,,,-99.99,,2013-01-04 01:22:00,
2013-01-03 17:32:00,32.0,7.0,-100.00,NE,54,2.0,5.0,35,-99.99,,,-99.99,,2013-01-04 01:32:00,
2013-01-03 17:42:00,32.0,7.0,-100.00,ENE,62,3.0,5.0,35,-99.99,,,-99.99,,2013-01-04 01:42:00,
2013-01-03 17:52:00,32.0,6.0,-100.00,ENE,63,3.0,7.0,33,-99.99,,,-99.99,,2013-01-04 01:52:00,
2013-01-03 18:02:00,32.0,6.0,-100.00,ENE,66,3.0,6.0,33,-99.99,,,-99.99,,2013-01-04 02:02:00,
2013-01-03 18:12:00,32.0,6.0,-100.00,NE,51,3.0,5.0,33,-99.99,,,-99.99,,2013-01-04 02:12:00,
2013-01-03 18:22:00,32.0,4.0,-100.00,ENE,60,4.0,7.0,30,-99.99,,,-99.99,,2013-01-04 02:22:00,
2013-01-03 18:32:00,32.0,3.0,-100.00,ENE,68,3.0,7.0,29,-99.99,,,-99.99,,2013-01-04 02:32:00,
2013-01-03 18:42:00,32.0,3.0,-100.00,ENE,68,3.0,7.0,29,-99.99,,,-99.99,,2013-01-04 02:42:00,
2013-01-03 18:52:00,32.0,3.0,-100.00,NE,54,4.0,7.0,28,-99.99,,,-99.99,,2013-01-04 02:52:00,
2013-01-03 19:02:00,33.0,2.0,-100.00,ENE,59,4.0,7.0,26,-99.99,,,-99.99,,2013-01-04 03:02:00,
2013-01-03 19:12:00,33.0,1.0,-100.00,ENE,61,3.0,7.0,25,-99.99,,,-99.99,,2013-01-04 03:12:00,
2013-01-03 19:22:00,33.0,1.0,-100.00,ENE,62,3.0,8.0,25,-99.99,,,-99.99,,2013-01-04 03:22:00,
2013-01-03 19:32:00,33.0,0.0,-100.00,ENE,59,4.0,6.0,24,-99.99,,,-99.99,,2013-01-04 03:32:00,
2013-01-03 19:42:00,33.0,0.0,-100.00,ENE,59,4.0,6.0,24,-99.99,,,-99.99,,2013-01-04 03:42:00,
2013-01-03 19:52:00,34.0,1.0,-100.00,NE,55,5.0,9.0,24,-99.99,,,-99.99,,2013-01-04 03:52:00,
2013-01-03 20:02:00,34.0,0.0,-100.00,NE,53,5.0,10.0,23,-99.99,,,-99.99,,2013-01-04 04:02:00,
2013-01-03 20:12:00,35.0,-2.0,-100.00,ENE,64,4.0,9.0,20,-99.99,,,-99.99,,2013-01-04 04:12:00,
2013-01-03 20:22:00,34.0,1.0,-100.00,ENE,57,4.0,8.0,24,-99.99,,,-99.99,,2013-01-04 04:22:00,
2013-01-03 20:32:00,33.0,0.0,-100.00,ENE,62,3.0,6.0,24,-99.99,,,-99.99,,2013-01-04 04:32:00,
2013-01-03 20:42:00,33.0,0.0,-100.00,ENE,62,3.0,6.0,24,-99.99,,,-99.99,,2013-01-04 04:42:00,
2013-01-03 20:52:00,33.0,0.0,-100.00,ENE,59,5.0,8.0,24,-99.99,,,-99.99,,2013-01-04 04:52:00,
2013-01-03 21:03:00,33.0,0.0,-100.00,ENE,59,5.0,8.0,24,-99.99,,,-99.99,,2013-01-04 05:03:00,
2013-01-03 21:12:00,34.0,0.0,-100.00,NE,53,5.0,9.0,23,-99.99,,,-99.99,,2013-01-04 05:12:00,
2013-01-03 21:22:00,34.0,1.0,-100.00,NE,52,4.0,7.0,24,-99.99,,,-99.99,,2013-01-04 05:22:00,
2013-01-03 21:33:00,34.0,-1.0,-100.00,NE,56,5.0,10.0,22,-99.99,,,-99.99,,2013-01-04 05:33:00,
2013-01-03 21:42:00,34.0,-1.0,-100.00,NE,56,5.0,10.0,22,-99.99,,,-99.99,,2013-01-04 05:42:00,
2013-01-03 21:52:00,33.0,-1.0,-100.00,ENE,57,5.0,9.0,23,-99.99,,,-99.99,,2013-01-04 05:52:00,
2013-01-03 22:02:00,33.0,-1.0,-100.00,NE,52,5.0,7.0,23,-99.99,,,-99.99,,2013-01-04 06:02:00,
2013-01-03 22:12:00,33.0,-1.0,-100.00,ENE,57,5.0,11.0,23,-99.99,,,-99.99,,2013-01-04 06:12:00,
2013-01-03 22:22:00,33.0,-2.0,-100.00,ENE,62,5.0,10.0,22,-99.99,,,-99.99,,2013-01-04 06:22:00,
2013-01-03 22:32:00,33.0,-2.0,-100.00,ENE,60,5.0,9.0,22,-99.99,,,-99.99,,2013-01-04 06:32:00,
2013-01-03 22:42:00,33.0,-2.0,-100.00,ENE,57,5.0,9.0,22,-99.99,,,-99.99,,2013-01-04 06:42:00,
2013-01-03 22:52:00,33.0,-2.0,-100.00,ENE,60,5.0,10.0,22,-99.99,,,-99.99,,2013-01-04 06:52:00,
2013-01-03 23:02:00,33.0,-3.0,-100.00,NE,53,5.0,8.0,21,-99.99,,,-99.99,,2013-01-04 07:02:00,
2013-01-03 23:12:00,33.0,-4.0,-100.00,NE,55,5.0,8.0,20,-99.99,,,-99.99,,2013-01-04 07:12:00,
2013-01-03 23:22:00,33.0,-3.0,-100.00,NE,56,5.0,9.0,21,-99.99,,,-99.99,,2013-01-04 07:22:00,
2013-01-03 23:32:00,33.0,-3.0,-100.00,ENE,63,4.0,7.0,21,-99.99,,,-99.99,,2013-01-04 07:32:00,
2013-01-03 23:42:00,33.0,-3.0,-100.00,ENE,60,4.0,7.0,21,-99.99,,,-99.99,,2013-01-04 07:42:00,
2013-01-03 23:52:00,34.0,-2.0,-100.00,ENE,59,4.0,7.0,21,-99.99,,,-99.99,,2013-01-04 07:52:00,